Weather History for KAFN - September, 2013

Change the Weather History Date:

Tuesday, September 17, 2013

  Actual Average Record
Temperature  
Mean Temperature 46 °F -  
Max Temperature 62 °F 68 °F - (-1)
Min Temperature 32 °F 47 °F - (-1)
Degree Days  
Heating Degree Days 18    
Moisture  
Dew Point 36 °F    
Average Humidity 73    
Maximum Humidity 96    
Minimum Humidity 36    
Precipitation  
Precipitation 0.00 in - - ()
Sea Level Pressure  
Sea Level Pressure 30.40 in    
Wind  
Wind Speed 1 mph (North)    
Max Wind Speed 7 mph    
Max Gust Speed -    
Visibility 10 miles    
Events      
Averages and records for this station are not official NWS values.
T = Trace of Precipitation, MM = Missing Value Source: NWS Daily Summary

Daily Weather History Graph

Daily Weather History Graph

Search for Another Location

Airport or City:

Trip Planner

Search our weather history database for the weather conditions in past years. The results will help you decide how hot, cold, wet, or windy it might be!

Date:

Astronomy

Sep. 17, 2013 Rise Set
Actual Time 6:30 AM EDT 6:53 PM EDT
Civil Twilight 6:01 AM EDT 7:22 PM EDT
Nautical Twilight 5:28 AM EDT 7:55 PM EDT
Astronomical Twilight 4:54 AM EDT 8:29 PM EDT
Moon 5:40 PM EDT (9/17) 4:19 AM EDT (9/17)
Length of Visible Light 13h 20m
Length of Day
12h 23m
Waxing Gibbous, 96% of the Moon is Illuminated
Sep 17
Waxing Gibbous
Sep 19
Full
Sep 26
Last Quarter
Oct 4
New
Oct 11
First Quarter

Hourly Weather History & Observations

Time (EDT) Temp. Windchill Dew Point Humidity Pressure Visibility Wind Dir Wind Speed Gust Speed Precip Events Conditions
12:52 AM 39.9 °F - 33.1 °F 77% 30.32 in 10.0 mi Calm Calm - N/A   Clear
1:52 AM 37.0 °F - 33.1 °F 86% 30.34 in 10.0 mi Calm Calm - N/A   Clear
2:52 AM 36.0 °F - 33.1 °F 89% 30.35 in 10.0 mi Calm Calm - N/A   Clear
3:52 AM 35.1 °F - 32.0 °F 89% 30.36 in 10.0 mi Calm Calm - N/A   Clear
4:42 AM 33.8 °F - 32.0 °F 93% 30.34 in 10.0 mi Calm Calm - N/A   Partly Cloudy
4:52 AM 34.0 °F - 32.0 °F 92% 30.37 in 10.0 mi Calm Calm - N/A   Partly Cloudy
5:52 AM 32.0 °F - 30.9 °F 96% 30.40 in 10.0 mi Calm Calm - N/A   Partly Cloudy
6:52 AM 32.0 °F - 30.9 °F 96% 30.43 in 10.0 mi Calm Calm - N/A   Partly Cloudy
7:52 AM 36.0 °F - 34.0 °F 93% 30.44 in 10.0 mi Calm Calm - N/A   Clear
8:52 AM 45.0 °F 43.5 °F 36.0 °F 71% 30.45 in 10.0 mi Variable 3.5 mph - N/A   Clear
9:52 AM 48.9 °F - 35.1 °F 59% 30.47 in 10.0 mi Variable 4.6 mph - N/A   Clear
10:52 AM 52.0 °F - 32.0 °F 47% 30.47 in 10.0 mi Variable 5.8 mph - N/A   Clear
11:52 AM 54.0 °F - 33.1 °F 45% 30.46 in 10.0 mi Variable 6.9 mph - N/A   Clear
12:52 PM 55.9 °F - 35.1 °F 45% 30.45 in 10.0 mi Variable 5.8 mph - N/A   Clear
1:52 PM 57.9 °F - 34.0 °F 41% 30.43 in 10.0 mi Variable 4.6 mph - N/A   Clear
2:52 PM 59.0 °F - 34.0 °F 39% 30.41 in 10.0 mi Variable 3.5 mph - N/A   Clear
3:52 PM 61.0 °F - 34.0 °F 36% 30.39 in 10.0 mi Variable 3.5 mph - N/A   Clear
4:52 PM 61.0 °F - 37.0 °F 41% 30.38 in 10.0 mi Variable 3.5 mph - N/A   Clear
5:52 PM 59.0 °F - 41.0 °F 51% 30.38 in 10.0 mi Variable 5.8 mph - N/A   Clear
6:52 PM 53.1 °F - 46.0 °F 77% 30.38 in 10.0 mi Calm Calm - N/A   Clear
7:52 PM 48.0 °F - 45.0 °F 89% 30.38 in 10.0 mi Calm Calm - N/A   Clear
8:52 PM 46.0 °F - 43.0 °F 89% 30.39 in 10.0 mi Calm Calm - N/A   Clear
9:52 PM 43.0 °F - 41.0 °F 93% 30.38 in 10.0 mi Calm Calm - N/A   Clear
10:52 PM 42.1 °F - 39.9 °F 92% 30.38 in 10.0 mi Calm Calm - N/A   Clear
11:52 PM 41.0 °F - 39.0 °F 93% 30.38 in 10.0 mi Calm Calm - N/A   Clear